Location: Ferma
(41.9500°N, 44.5167°E)
Time: 22:14:38
(UTC+00:00)

Radarsat Rocket - Visible Passes

Search period start: 28 November 2023 00:00
Search period end: 08 December 2023 00:00
Orbit: 933 x 1492 km, 100.6° (Epoch: 28 November)

Date Brightness Start Highest point End Pass type
(mag) Time Alt. Az. Time Alt. Az. Time Alt. Az.
28 Nov 7.2 02:41:43 10° ENE 02:45:36 15° E 02:49:40 10° SE visible
28 Nov 3.8 14:59:30 10° SSE 15:05:19 68° ENE 15:11:09 10° N visible
28 Nov 6.5 16:50:28 10° SW 16:53:57 16° W 16:57:26 10° NW visible
29 Nov 7.5 02:29:58 10° ENE 02:32:18 12° E 02:34:41 10° ESE visible
29 Nov 4.0 14:46:32 10° SE 14:52:11 54° ENE 14:57:55 10° N visible
29 Nov 6.2 16:36:19 10° SW 16:40:37 21° W 16:44:56 10° NW visible
30 Nov 4.2 14:33:39 10° SE 14:39:05 42° ENE 14:44:38 10° N visible
30 Nov 5.8 16:22:28 10° SSW 16:27:19 27° W 16:32:14 10° NW visible
01 Dec 4.5 14:20:52 10° SE 14:26:01 34° ENE 14:31:17 10° N visible
01 Dec 5.4 16:08:47 10° SSW 16:14:02 34° W 16:19:22 10° NNW visible
02 Dec 6.2 03:34:59 10° NNE 03:41:36 39° E 03:48:56 10° SSE visible
02 Dec 4.8 14:08:12 10° ESE 14:12:59 27° ENE 14:17:54 10° N visible
02 Dec 5.0 15:55:15 10° S 16:00:46 44° W 16:06:26 10° NNW visible
03 Dec 6.6 03:22:04 10° NE 03:28:26 32° E 03:35:24 10° SSE visible
03 Dec 5.0 13:55:39 10° ESE 13:59:58 22° ENE 14:04:26 10° N visible
03 Dec 4.5 15:41:50 10° S 15:47:32 57° WSW 15:53:24 10° NNW visible
04 Dec 6.9 03:09:15 10° NE 03:15:14 27° E 03:21:42 10° SSE visible
04 Dec 4.1 15:28:32 10° S 15:34:19 73° WSW 15:40:20 10° NNW visible
05 Dec 7.1 02:56:33 10° NE 03:02:00 22° E 03:07:49 10° SE visible
05 Dec 3.9 15:15:20 10° SSE 15:21:08 89° E 15:27:12 10° NNW visible
05 Dec 6.8 17:08:18 10° WSW 17:10:07 11° W 17:11:57 10° WNW visible
06 Dec 7.2 02:44:03 10° NE 02:48:45 17° E 02:53:42 10° SE visible
06 Dec 3.8 15:02:14 10° SSE 15:07:59 71° ENE 15:14:02 10° NNW visible
06 Dec 6.6 16:53:25 10° SW 16:56:44 15° W 17:00:09 10° NW visible
07 Dec 7.4 02:31:55 10° ENE 02:35:28 14° E 02:39:08 10° ESE visible
07 Dec 4.0 14:49:13 10° SE 14:54:51 56° ENE 15:00:49 10° N visible
07 Dec 6.3 16:39:12 10° SW 16:43:23 20° W 16:47:43 10° NW visible
